User: anonymous   Login
Location: Budapest
(47.4979°N, 19.0402°E)
Time: 16:21:41
(UTC+02:00)
Language:

UNISAT 6 - Orbit

View from above orbital plane
View from above orbital plane
View from above satellite
View from above satellite

Ground track
Ground track

The orbit data is extracted from the following two-line orbital elements,

1 40012U 14033C   18112.20299245  .00000259  00000-0  46180-4 0  9993
2 40012  97.8164 350.5247 0059116  21.0069 339.3549 14.73796904206453
Epoch (UTC): 22 April 2018 04:52:18
Eccentricity: 0.0059116
inclination: 97.8164°
perigee height: 607 km
apogee height: 690 km
right ascension of ascending node: 350.5247°
argument of perigee: 21.0069°
revolutions per day: 14.73796904
mean anomaly at epoch: 339.3549°
orbit number at epoch: 20645

The dashed part of the orbit path shows where the satellite is in the earth's shadow,  

DLR